EW6566 Weather Reports


time (UTC)temp
F
wind
direction
speed
knots
gust
knots
rain 1hr
in
rain 24hr
in
rain mn
in
humidity
%
barometer
mb
20260506232539 50 0.0 0.0 0.00 0.00 0.00 70 1013.5
20260506231519 51 0.0 0.0 0.00 0.00 0.00 69 1013.5
20260506230519 51 0.0 0.0 0.00 0.00 0.00 69 1013.5
20260506225519 51 0.0 0.0 0.00 0.00 0.00 69 1013.4
20260506224519 51 0.0 0.0 0.00 0.00 0.00 69 1013.3
20260506223519 51 0.0 0.0 0.00 0.00 0.00 68 1013.4
20260506222519 52 0.0 0.0 0.00 0.00 0.00 68 1013.2
20260506221539 52 0.0 0.0 0.00 0.00 0.00 67 1013.3
20260506220518 52 0.0 0.0 0.00 0.00 0.00 67 1013.2
20260506215519 52 0.0 0.0 0.00 0.00 0.00 66 1013.0
20260506214519 52 0.0 0.0 0.00 0.00 0.00 65 1013.0
20260506213526 53 0.0 0.0 0.00 0.00 0.00 64 1012.9
20260506212524 53 0.0 0.0 0.00 0.00 0.00 64 1012.8
20260506211518 53 0.0 0.0 0.00 0.00 0.00 63 1012.6
20260506210519 53 0.0 0.0 0.00 0.00 0.00 63 1012.6
20260506205519 53 0.0 0.0 0.00 0.00 0.00 62 1012.5
20260506204520 53 0.0 0.0 0.00 0.00 0.00 62 1012.4
20260506203519 53 0.0 0.0 0.00 0.00 0.00 62 1012.3
20260506202519 54 0.0 0.0 0.00 0.00 0.00 63 1012.2
20260506201519 54 0.0 0.0 0.00 0.00 0.00 63 1012.2
20260506200519 54 0.0 0.0 0.00 0.00 0.00 63 1012.2
20260506195539 54 0.0 0.0 0.00 0.00 0.00 63 1012.1
20260506194519 54 0.0 0.0 0.00 0.00 0.00 64 1012.0
20260506193519 54 0.0 0.0 0.00 0.00 0.00 63 1012.0
20260506192539 54 0.0 0.0 0.00 0.00 0.00 63 1011.8
20260506191518 55 0.0 0.0 0.00 0.00 0.00 64 1011.6
20260506190559 55 0.0 0.0 0.00 0.00 0.00 63 1011.5
20260506185539 55 0.0 0.0 0.00 0.00 0.00 62 1011.3
20260506184519 55 0.0 0.0 0.00 0.00 0.00 59 1011.2
20260506183519 55 0.0 0.0 0.00 0.00 0.00 57 1011.2
20260506182519 55 0.0 0.0 0.00 0.00 0.00 55 1011.1
20260506181519 55 0.0 0.0 0.00 0.00 0.00 55 1011.0
20260506180519 55 0.0 0.0 0.00 0.00 0.00 54 1010.9
20260506175519 56 0.0 0.0 0.00 0.00 0.00 54 1010.9
20260506174519 56 0.0 0.0 0.00 0.00 0.00 53 1010.8
20260506173519 56 0.0 0.0 0.00 0.00 0.00 53 1010.7
20260506172519 56 0.0 0.0 0.00 0.00 0.00 52 1010.4
20260506171519 56 0.0 0.0 0.00 0.00 0.00 53 1010.4
20260506170519 56 0.0 0.0 0.00 0.00 0.00 53 1010.3
20260506165519 57 0.0 0.0 0.00 0.00 0.00 54 1010.4
20260506164538 57 0.0 0.0 0.00 0.00 0.00 51 1010.4
20260506163519 57 0.0 0.0 0.00 0.00 0.00 52 1010.4
20260506162538 57 0.0 0.0 0.00 0.00 0.00 51 1010.3
20260506161519 57 0.0 0.0 0.00 0.00 0.00 51 1010.2
20260506160519 57 0.0 0.0 0.00 0.00 0.00 51 1010.3
20260506155539 57 0.0 0.0 0.00 0.00 0.00 49 1010.3
20260506154538 57 0.0 0.0 0.00 0.00 0.00 50 1010.4
20260506153518 57 0.0 0.0 0.00 0.00 0.00 50 1010.3
20260506152519 57 0.0 0.0 0.00 0.00 0.00 51 1010.3
20260506151519 56 0.0 0.0 0.00 0.00 0.00 51 1010.2
20260506150518 56 0.0 0.0 0.00 0.00 0.00 52 1010.3
20260506145519 56 0.0 0.0 0.00 0.00 0.00 52 1010.2
20260506144519 56 0.0 0.0 0.00 0.00 0.00 51 1010.2
20260506143538 56 0.0 0.0 0.00 0.00 0.00 52 1010.2
20260506142518 56 0.0 0.0 0.00 0.00 0.00 50 1010.2
20260506141518 56 0.0 0.0 0.00 0.00 0.00 51 1010.2
20260506140539 56 0.0 0.0 0.00 0.00 0.00 50 1010.1
20260506135518 56 0.0 0.9 0.00 0.00 0.00 49 1010.0
20260506134519 57 0.0 0.0 0.00 0.00 0.00 49 1010.1
20260506133538 57 0.0 0.0 0.00 0.00 0.00 50 1009.9
20260506132518 56 0.0 0.0 0.00 0.00 0.00 50 1010.0
20260506131518 56 0.0 0.0 0.00 0.00 0.00 49 1010.0
20260506130518 56 0.0 0.0 0.00 0.00 0.00 50 1010.0
20260506125518 56 0.0 0.0 0.00 0.00 0.00 49 1009.9
20260506124518 57 0.0 0.0 0.00 0.00 0.00 46 1009.8
20260506123518 57 0.0 0.0 0.00 0.00 0.00 46 1009.9
20260506122518 57 0.0 0.0 0.00 0.00 0.00 46 1009.8
20260506121518 57 0.0 0.0 0.00 0.00 0.00 46 1009.8
20260506120526 57 0.0 0.0 0.00 0.00 0.00 48 1009.8
20260506115518 57 0.0 0.0 0.00 0.00 0.00 48 1009.7
20260506114518 57 0.0 0.0 0.00 0.00 0.00 48 1009.7
20260506113518 57 0.0 0.0 0.00 0.00 0.00 50 1009.8
20260506112518 57 0.0 0.0 0.00 0.00 0.00 52 1009.6
20260506111518 56 0.0 0.0 0.00 0.00 0.00 57 1009.6
20260506110518 56 0.0 0.0 0.00 0.00 0.00 57 1009.6
20260506105518 56 0.0 0.0 0.00 0.00 0.00 56 1009.5
20260506104517 56 0.0 0.0 0.00 0.00 0.00 56 1009.5
20260506103518 56 0.0 0.0 0.00 0.00 0.00 58 1009.5
20260506102518 55 0.0 0.0 0.00 0.00 0.00 66 1009.5
20260506101518 56 0.0 0.0 0.00 0.00 0.00 67 1009.4
20260506100518 56 0.0 0.0 0.00 0.00 0.00 65 1009.4
20260506095518 57 0.0 0.0 0.00 0.00 0.00 62 1009.3
20260506094518 57 0.0 0.0 0.00 0.00 0.00 58 1009.3
20260506093518 58 0.0 0.0 0.00 0.00 0.00 57 1009.2
20260506092518 58 0.0 0.0 0.00 0.00 0.00 56 1009.2
20260506091538 58 0.0 0.0 0.00 0.00 0.00 58 1009.1
20260506090518 58 0.0 0.0 0.00 0.00 0.00 59 1009.1
20260506085518 58 0.0 0.0 0.00 0.00 0.00 60 1009.1
20260506084518 58 0.0 0.0 0.00 0.00 0.00 62 1009.1
20260506083518 57 0.0 0.0 0.00 0.00 0.00 61 1009.1
20260506082518 57 0.0 0.0 0.00 0.00 0.00 61 1009.0
20260506081518 56 0.0 0.0 0.00 0.00 0.00 60 1008.9
20260506080518 57 0.0 0.0 0.00 0.00 0.00 61 1009.0
20260506073518 57 0.0 0.0 0.00 0.00 0.00 62 1008.8
20260506072518 57 0.0 0.0 0.00 0.00 0.00 63 1008.7
20260506071518 56 0.0 0.0 0.00 0.00 0.00 65 1008.7
20260506070518 56 0.0 0.0 0.00 0.00 0.00 70 1008.8
20260506061538 52 0.0 0.0 0.00 0.00 0.00 84 1008.5
20260506060538 52 0.0 0.0 0.00 0.00 0.00 84 1008.3
20260506050520 51 0.0 0.0 0.00 0.00 0.00 84 1008.3
20260506044520 51 0.0 0.0 0.00 0.00 0.00 84 1008.5
20260506043519 51 0.0 0.0 0.00 0.00 0.00 84 1008.5
20260506042539 51 0.0 0.0 0.00 0.00 0.00 84 1008.5
20260506041520 51 0.0 0.0 0.00 0.00 0.00 84 1008.5
20260506040519 51 0.0 0.0 0.00 0.00 0.00 84 1008.5
20260506035519 51 0.0 0.0 0.00 0.00 0.00 84 1008.6
20260506034519 51 0.0 0.0 0.00 0.00 0.00 83 1008.7
20260506033519 51 0.0 0.0 0.00 0.00 0.00 82 1008.7
20260506032519 51 0.0 0.0 0.00 0.00 0.00 81 1008.7
20260506031520 51 0.0 0.0 0.00 0.00 0.00 81 1008.8
20260506030519 51 0.0 0.0 0.00 0.00 0.00 81 1008.9
20260506025519 51 0.0 0.0 0.00 0.00 0.00 81 1009.0
20260506024519 51 0.0 0.0 0.00 0.00 0.00 81 1009.1
20260506023519 51 0.0 0.0 0.00 0.00 0.00 81 1009.0
20260506022519 51 0.0 0.0 0.00 0.00 0.00 81 1009.1
20260506021520 51 0.0 0.0 0.00 0.00 0.00 81 1009.1
20260506020519 51 0.0 0.0 0.00 0.00 0.00 80 1009.1
20260506015519 51 0.0 0.0 0.00 0.00 0.00 79 1009.2
20260506014519 51 0.0 0.0 0.00 0.00 0.00 78 1009.1
20260506013519 51 0.0 0.0 0.00 0.00 0.00 78 1009.2
20260506012521 51 0.0 0.0 0.00 0.00 0.00 78 1009.1
20260506011520 51 0.0 0.0 0.00 0.00 0.00 78 1009.2
20260506010520 51 0.0 0.0 0.00 0.00 0.00 79 1009.4
20260506005519 51 0.0 0.0 0.00 0.00 0.00 80 1009.4
20260506004519 51 0.0 0.0 0.00 0.00 0.00 79 1009.6
20260506003519 51 0.0 0.0 0.00 0.00 0.00 79 1009.6
20260506002519 51 0.0 0.0 0.00 0.00 0.00 79 1009.7
20260506001519 51 0.0 0.0 0.00 0.00 0.00 79 1009.8
20260506000523 51 0.0 0.0 0.00 0.00 0.00 79 1009.7
20260505235539 51 0.0 0.0 0.00 0.00 0.00 80 1009.7
20260505234519 51 0.0 0.0 0.00 0.00 0.00 80 1009.9
20260505233519 51 0.0 0.0 0.00 0.00 0.00 81 1010.0